Weather History for Alexander City, AL

Change the Weather History Date:

Tuesday, April 15, 2014

  Actual Average (KAUO) Record (KAUO)
Temperature  
Mean Temperature 55 °F -  
Max Temperature 68 °F - 88 °F (1972)
Min Temperature 42 °F - 31 °F (1962)
Degree Days  
Heating Degree Days 10    
Month to date heating degree days  
Since 1 July heating degree days  
Cooling Degree Days 0    
Month to date cooling degree days  
Year to date cooling degree days  
Growing Degree Days 5 (Base 50)    
Moisture  
Dew Point 42 °F    
Average Humidity 66    
Maximum Humidity 86    
Minimum Humidity 33    
Precipitation  
Precipitation 0.17 in - 1.97 in (1975)
Month to date precipitation  
Year to date precipitation  
Sea Level Pressure  
Sea Level Pressure 29.96 in    
Wind  
Wind Speed 8 mph (NNW)    
Max Wind Speed 23 mph    
Max Gust Speed 32 mph    
Visibility 9 miles    
Events Rain    
T = Trace of Precipitation, MM = Missing Value Source: NWS Daily Summary

Daily Weather History Graph

Daily Weather History Graph

Search for Another Location

Airport:

Trip Planner

Search our weather history database for the weather conditions in past years. The results will help you decide how hot, cold, wet, or windy it might be!

Date:

Astronomy

Apr. 15, 2014 Rise Set
Actual Time 6:14 AM CDT 7:14 PM CDT
Civil Twilight 5:48 AM CDT 7:39 PM CDT
Nautical Twilight 5:18 AM CDT 8:09 PM CDT
Astronomical Twilight 4:47 AM CDT 8:40 PM CDT
Moon 7:52 PM CDT (4/15) 6:22 AM CDT (4/15)
Length of Visible Light 13h 50m
Length of Day
13h 00m
Full, 100% of the Moon is Illuminated
Apr 15
Full
Apr 22
Last Quarter
Apr 29
New
May 6
First Quarter
May 14
Full

Hourly Weather History & Observations

Time (CDT) Temp. Windchill Dew Point Humidity Pressure Visibility Wind Dir Wind Speed Gust Speed Precip Events Conditions
12:15 AM 68.0 °F - 63.1 °F 84% 29.84 in 10.0 mi Calm Calm - 0.01 in Rain Light Rain
12:35 AM 68.0 °F - 63.5 °F 85% 29.83 in 7.0 mi Calm Calm - 0.02 in   Overcast
12:55 AM 65.5 °F - 61.0 °F 85% 29.82 in 10.0 mi Calm Calm - 0.02 in Rain Light Rain
1:15 AM 65.5 °F - 61.0 °F 85% 29.83 in 5.0 mi Calm Calm - 0.03 in Rain Light Rain
1:35 AM 65.5 °F - 61.2 °F 86% 29.83 in 5.0 mi Calm Calm - 0.06 in Rain Rain
1:55 AM 65.5 °F - 61.2 °F 86% 29.80 in 7.0 mi Calm Calm - 0.08 in Rain Rain
2:15 AM 65.5 °F - 61.2 °F 86% 29.73 in 10.0 mi ESE 3.5 mph - 0.03 in Rain Rain
2:35 AM 65.5 °F - 61.2 °F 86% 29.74 in 10.0 mi SSW 3.5 mph - 0.04 in Rain Light Rain
2:55 AM 65.5 °F - 61.0 °F 85% 29.75 in 10.0 mi South 3.5 mph - 0.04 in Rain Light Rain
3:15 AM 65.5 °F - 61.0 °F 85% 29.74 in 10.0 mi Calm Calm - 0.01 in Rain Rain
3:35 AM 65.5 °F - 61.0 °F 85% 29.74 in 10.0 mi SW 4.6 mph - 0.01 in Rain Rain
3:55 AM 65.5 °F - 61.0 °F 85% 29.74 in 10.0 mi Calm Calm - 0.01 in   Drizzle
4:15 AM 65.5 °F - 61.0 °F 85% 29.75 in 10.0 mi SW 4.6 mph - N/A   Overcast
4:35 AM 65.5 °F - 61.0 °F 85% 29.74 in 7.0 mi SW 5.8 mph - N/A Rain Heavy Rain
4:55 AM 65.5 °F - 60.8 °F 85% 29.74 in 10.0 mi SW 8.1 mph - 0.01 in   Light Drizzle
5:15 AM 65.3 °F - 60.6 °F 85% 29.76 in 7.0 mi WNW 13.8 mph 19.6 mph N/A Rain Light Rain
5:35 AM 57.7 °F - 52.7 °F 83% 29.78 in 7.0 mi WNW 13.8 mph 20.7 mph N/A   Overcast
5:55 AM 55.4 °F - 50.4 °F 83% 29.78 in 4.0 mi NW 19.6 mph 27.6 mph N/A Rain Light Rain
6:15 AM 55.4 °F - 50.0 °F 82% 29.79 in 7.0 mi NW 16.1 mph 20.7 mph N/A   Overcast
6:35 AM 52.7 °F - 47.5 °F 82% 29.81 in 7.0 mi NNW 16.1 mph 24.2 mph N/A Rain Rain
6:55 AM 51.1 °F - 45.5 °F 81% 29.82 in 10.0 mi NNW 18.4 mph 32.2 mph N/A   Overcast
7:15 AM 50.2 °F - 44.8 °F 82% 29.84 in 7.0 mi NNW 13.8 mph 27.6 mph N/A   Drizzle
7:35 AM 50.2 °F - 44.8 °F 82% 29.84 in 7.0 mi NNW 17.3 mph 24.2 mph N/A   Light Drizzle
7:55 AM 50.2 °F - 44.6 °F 81% 29.85 in 7.0 mi NNW 16.1 mph 27.6 mph 0.01 in Rain Light Rain
8:15 AM 50.2 °F - 44.6 °F 81% 29.87 in 10.0 mi NW 16.1 mph 25.3 mph N/A   Overcast
8:35 AM 50.2 °F - 44.1 °F 79% 29.89 in 10.0 mi NNW 18.4 mph 24.2 mph N/A   Overcast
8:55 AM 50.2 °F - 43.2 °F 77% 29.90 in 10.0 mi NW 11.5 mph 21.9 mph N/A   Overcast
9:15 AM 50.2 °F - 43.7 °F 78% 29.91 in 10.0 mi NNW 13.8 mph 25.3 mph N/A   Mostly Cloudy
9:35 AM 50.2 °F - 42.8 °F 76% 29.93 in 10.0 mi NW 16.1 mph 21.9 mph N/A   Mostly Cloudy
9:55 AM 50.2 °F - 41.9 °F 73% 29.94 in 10.0 mi NW 18.4 mph 29.9 mph N/A   Overcast
10:15 AM 50.2 °F - 40.5 °F 69% 29.95 in 10.0 mi NNW 18.4 mph 26.5 mph N/A   Overcast
10:35 AM 50.2 °F - 41.5 °F 72% 29.96 in 10.0 mi NNW 18.4 mph 25.3 mph N/A   Overcast
10:55 AM 47.7 °F - 40.1 °F 75% 29.98 in 7.0 mi NNW 15.0 mph 23.0 mph N/A   Mostly Cloudy
11:35 AM 50.2 °F - 40.1 °F 68% 29.99 in 10.0 mi North 18.4 mph 25.3 mph N/A   Overcast
11:55 AM 48.9 °F - 37.9 °F 66% 30.01 in 10.0 mi North 17.3 mph 24.2 mph N/A   Overcast
12:35 PM 47.7 °F - 37.0 °F 67% 30.02 in 10.0 mi NNW 15.0 mph 26.5 mph N/A   Overcast
12:55 PM 50.2 °F - 37.8 °F 62% 30.01 in 10.0 mi NNW 20.7 mph 25.3 mph N/A   Mostly Cloudy
1:15 PM 50.2 °F - 37.0 °F 61% 30.02 in 10.0 mi NW 12.7 mph 23.0 mph N/A   Mostly Cloudy
1:35 PM 50.2 °F - 36.0 °F 58% 30.02 in 10.0 mi North 15.0 mph 27.6 mph N/A   Overcast
1:55 PM 50.2 °F - 36.1 °F 59% 30.02 in 10.0 mi NNW 18.4 mph 21.9 mph N/A   Overcast
2:15 PM 50.2 °F - 35.8 °F 58% 30.03 in 10.0 mi NNW 17.3 mph 24.2 mph N/A   Overcast
2:35 PM 50.2 °F - 36.3 °F 59% 30.03 in 10.0 mi NW 16.1 mph 19.6 mph N/A   Overcast
2:55 PM 50.4 °F - 35.1 °F 56% 30.03 in 10.0 mi NNW 15.0 mph 25.3 mph N/A   Overcast
3:15 PM 52.7 °F - 36.0 °F 53% 30.03 in 10.0 mi NNW 15.0 mph 24.2 mph N/A   Overcast
3:35 PM 52.7 °F - 34.5 °F 50% 30.03 in 10.0 mi NNW 18.4 mph 26.5 mph N/A   Overcast
3:55 PM 51.4 °F - 32.7 °F 49% 30.04 in 10.0 mi NW 15.0 mph 25.3 mph N/A   Mostly Cloudy
4:15 PM 55.4 °F - 33.1 °F 43% 30.04 in 10.0 mi NNW 11.5 mph 20.7 mph N/A   Mostly Cloudy
4:35 PM 55.4 °F - 31.6 °F 40% 30.04 in 10.0 mi North 16.1 mph 24.2 mph N/A   Scattered Clouds
4:55 PM 55.4 °F - 29.3 °F 37% 30.04 in 10.0 mi North 21.9 mph 27.6 mph N/A   Clear
5:15 PM 55.4 °F - 29.7 °F 37% 30.04 in 10.0 mi North 13.8 mph 21.9 mph N/A   Clear
5:35 PM 55.4 °F - 29.3 °F 37% 30.03 in 10.0 mi North 16.1 mph 23.0 mph N/A   Clear
5:55 PM 55.4 °F - 26.8 °F 33% 30.04 in 10.0 mi North 23.0 mph 31.1 mph N/A   Clear
6:15 PM 55.4 °F - 27.5 °F 34% 30.03 in 10.0 mi North 9.2 mph 19.6 mph N/A   Clear
6:35 PM 54.3 °F - 27.5 °F 36% 30.05 in 10.0 mi North 12.7 mph 18.4 mph N/A   Clear
6:55 PM 52.7 °F - 26.6 °F 36% 30.05 in 10.0 mi NNW 10.4 mph - N/A   Clear
7:15 PM 51.3 °F - 26.2 °F 38% 30.04 in 10.0 mi North 4.6 mph - N/A   Clear
7:35 PM 50.2 °F - 29.1 °F 44% 30.07 in 10.0 mi NNW 8.1 mph - N/A   Clear
7:55 PM 50.2 °F - 29.7 °F 45% 30.09 in 10.0 mi North 6.9 mph - N/A   Clear
8:15 PM 50.2 °F - 30.9 °F 48% 30.10 in 10.0 mi North 6.9 mph - N/A   Clear
8:35 PM 48.7 °F - 30.7 °F 50% 30.11 in 10.0 mi North 6.9 mph - N/A   Clear
8:55 PM 47.7 °F - 30.9 °F 52% 30.13 in 10.0 mi North 6.9 mph - N/A   Clear
9:15 PM 47.7 °F - 29.7 °F 50% 30.14 in 10.0 mi North 6.9 mph - N/A   Clear
9:35 PM 47.1 °F - 30.2 °F 52% 30.15 in 10.0 mi North 6.9 mph - N/A   Clear
9:55 PM 44.4 °F 42.0 °F 29.5 °F 56% 30.17 in 10.0 mi NNW 4.6 mph - N/A   Clear
10:15 PM 43.9 °F 42.3 °F 29.3 °F 57% 30.17 in 10.0 mi NNW 3.5 mph - N/A   Clear
10:35 PM 42.8 °F 39.3 °F 30.4 °F 62% 30.19 in 10.0 mi NW 5.8 mph - N/A   Clear
10:55 PM 42.8 °F - 30.2 °F 61% 30.19 in 10.0 mi Calm Calm - N/A   Clear
11:15 PM 42.8 °F 38.0 °F 30.2 °F 61% 30.17 in 10.0 mi NNW 8.1 mph - N/A   Clear
11:35 PM 42.8 °F 40.1 °F 29.7 °F 60% 30.17 in 10.0 mi NNW 4.6 mph - N/A   Clear
11:55 PM 42.8 °F 38.6 °F 28.6 °F 57% 30.18 in 10.0 mi NNW 6.9 mph - N/A   Clear